Weather History for KFRM - May, 2013

Change the Weather History Date:

Friday, May 24, 2013

  Actual Average Record
Temperature  
Mean Temperature 56 °F -  
Max Temperature 69 °F 71 °F 91 °F (1977)
Min Temperature 42 °F 51 °F 37 °F (2002)
Degree Days  
Heating Degree Days 10    
Growing Degree Days 6 (Base 50)    
Moisture  
Dew Point 41 °F    
Average Humidity 57    
Maximum Humidity 82    
Minimum Humidity 31    
Precipitation  
Precipitation 0.01 in - - ()
Sea Level Pressure  
Sea Level Pressure 30.26 in    
Wind  
Wind Speed 11 mph (SE)    
Max Wind Speed 24 mph    
Max Gust Speed 30 mph    
Visibility 10 miles    
Events Thunderstorm    
Averages and records for this station are not official NWS values.
T = Trace of Precipitation, MM = Missing Value Source: NWS Daily Summary

Daily Weather History Graph

Daily Weather History Graph

Search for Another Location

Airport or City:

Trip Planner

Search our weather history database for the weather conditions in past years. The results will help you decide how hot, cold, wet, or windy it might be!

Date:

Astronomy

May. 24, 2013 Rise Set
Actual Time 5:44 AM CDT 8:45 PM CDT
Civil Twilight 5:09 AM CDT 9:19 PM CDT
Nautical Twilight 4:26 AM CDT 10:03 PM CDT
Astronomical Twilight 3:34 AM CDT 10:56 PM CDT
Moon 8:27 PM CDT (5/24) 5:18 AM CDT (5/24)
Length of Visible Light 16h 10m
Length of Day
15h 01m
Full, 100% of the Moon is Illuminated
May 24
Full
May 24
Full
May 31
Last Quarter
Jun 8
New
Jun 16
First Quarter

Hourly Weather History & Observations

Time (CDT) Temp. Windchill Dew Point Humidity Pressure Visibility Wind Dir Wind Speed Gust Speed Precip Events Conditions
12:15 AM 48.2 °F - 35.6 °F 62% 30.32 in 10.0 mi ENE 3.5 mph - N/A   Clear
12:35 AM 46.4 °F 45.2 °F 35.6 °F 66% 30.32 in 10.0 mi NE 3.5 mph - N/A   Clear
12:55 AM 48.2 °F - 35.6 °F 62% 30.32 in 10.0 mi ENE 4.6 mph - N/A   Clear
1:15 AM 46.4 °F 43.5 °F 35.6 °F 66% 30.33 in 10.0 mi ENE 5.8 mph - N/A   Clear
1:35 AM 46.4 °F 42.9 °F 35.6 °F 66% 30.32 in 10.0 mi ENE 6.9 mph - N/A   Clear
2:15 AM 44.6 °F 40.7 °F 35.6 °F 71% 30.33 in 10.0 mi East 6.9 mph - N/A   Clear
3:15 AM 46.4 °F 41.5 °F 33.8 °F 62% 30.33 in 10.0 mi East 10.4 mph - N/A   Clear
3:56 AM 44.6 °F 39.7 °F 33.8 °F 66% 30.33 in 10.0 mi ESE 9.2 mph - N/A   Clear
4:15 AM 44.6 °F 40.2 °F 33.8 °F 66% 30.33 in 10.0 mi ESE 8.1 mph - N/A   Clear
4:35 AM 42.8 °F 38.6 °F 33.8 °F 70% 30.34 in 10.0 mi ESE 6.9 mph - N/A   Clear
4:55 AM 42.8 °F 37.5 °F 33.8 °F 70% 30.34 in 10.0 mi ESE 9.2 mph - N/A   Clear
5:15 AM 42.8 °F 38.0 °F 33.8 °F 70% 30.34 in 10.0 mi ESE 8.1 mph - N/A   Clear
6:35 AM 44.6 °F 39.2 °F 33.8 °F 66% 30.34 in 10.0 mi ESE 10.4 mph - N/A   Clear
7:35 AM 48.2 °F - 35.6 °F 62% 30.34 in 10.0 mi ESE 13.8 mph - N/A   Clear
7:55 AM 50.0 °F - 35.6 °F 58% 30.34 in 10.0 mi ESE 13.8 mph - N/A   Clear
8:15 AM 51.8 °F - 35.6 °F 54% 30.35 in 10.0 mi SE 13.8 mph - N/A   Clear
8:35 AM 53.6 °F - 37.4 °F 54% 30.35 in 10.0 mi SSE 13.8 mph - N/A   Clear
9:35 AM 57.2 °F - 37.4 °F 48% 30.34 in 10.0 mi SSE 13.8 mph - N/A   Clear
10:15 AM 59.0 °F - 37.4 °F 45% 30.34 in 9.0 mi SSE 16.1 mph - N/A   Clear
10:35 AM 60.8 °F - 37.4 °F 42% 30.34 in 10.0 mi SSE 16.1 mph 21.9 mph N/A   Clear
11:15 AM 62.6 °F - 37.4 °F 39% 30.32 in 10.0 mi SSE 19.6 mph 25.3 mph N/A   Clear
11:35 AM 62.6 °F - 37.4 °F 39% 30.31 in 10.0 mi SSE 17.3 mph 25.3 mph N/A   Clear
11:55 AM 62.6 °F - 37.4 °F 39% 30.31 in 10.0 mi SSE 20.7 mph - N/A   Clear
12:15 PM 64.4 °F - 37.4 °F 37% 30.29 in 10.0 mi SSE 19.6 mph - N/A   Clear
12:35 PM 64.4 °F - 37.4 °F 37% 30.29 in 10.0 mi SSE 15.0 mph 24.2 mph N/A   Clear
1:15 PM 66.2 °F - 37.4 °F 35% 30.27 in 10.0 mi SSE 20.7 mph 25.3 mph N/A   Clear
1:35 PM 66.2 °F - 37.4 °F 35% 30.26 in 10.0 mi SSE 17.3 mph 25.3 mph N/A   Clear
2:15 PM 69.8 °F - 39.2 °F 33% 30.23 in 10.0 mi South 21.9 mph 29.9 mph N/A   Partly Cloudy
2:35 PM 69.8 °F - 39.2 °F 33% 30.23 in 10.0 mi SSE 21.9 mph 28.8 mph N/A   Clear
3:15 PM 69.8 °F - 37.4 °F 31% 30.21 in 10.0 mi SSE 21.9 mph 27.6 mph N/A   Mostly Cloudy
3:55 PM 69.8 °F - 41.0 °F 35% 30.19 in 10.0 mi SE 24.2 mph - N/A   Mostly Cloudy
4:15 PM 69.8 °F - 42.8 °F 38% 30.18 in 10.0 mi SE 20.7 mph 26.5 mph N/A   Partly Cloudy
4:35 PM 69.8 °F - 42.8 °F 38% 30.18 in 10.0 mi SSE 23.0 mph 26.5 mph N/A   Scattered Clouds
5:35 PM 68.0 °F - 42.8 °F 40% 30.25 in 10.0 mi SSE 8.1 mph - N/A   Overcast
6:15 PM 64.4 °F - 50.0 °F 59% 30.21 in 10.0 mi SE 13.8 mph - N/A Thunderstorm Overcast
6:35 PM 62.6 °F - 48.2 °F 59% 30.17 in 8.0 mi ESE 19.6 mph - N/A Thunderstorm Overcast
6:55 PM 62.6 °F - 50.0 °F 63% 30.22 in 10.0 mi SE 10.4 mph - N/A Thunderstorm Overcast
7:15 PM 60.8 °F - 48.2 °F 63% 30.17 in 10.0 mi SE 19.6 mph - N/A Thunderstorm Overcast
7:35 PM 60.8 °F - 51.8 °F 72% 30.16 in 10.0 mi SE 17.3 mph 28.8 mph N/A Thunderstorm Thunderstorm
7:55 PM 59.0 °F - 51.8 °F 77% 30.17 in 9.0 mi ESE 15.0 mph - 0.01 in Thunderstorm Overcast
8:16 PM 57.2 °F - 51.8 °F 82% 30.17 in 10.0 mi ESE 13.8 mph - N/A   Overcast
8:35 PM 59.0 °F - 50.0 °F 72% 30.15 in 10.0 mi ESE 18.4 mph - N/A   Overcast
8:55 PM 57.2 °F - 50.0 °F 77% 30.13 in 10.0 mi ESE 18.4 mph 23.0 mph N/A   Overcast
9:15 PM 57.2 °F - 48.2 °F 72% 30.13 in 10.0 mi SE 16.1 mph - N/A   Overcast
9:35 PM 57.2 °F - 46.4 °F 67% 30.14 in 10.0 mi SE 18.4 mph 24.2 mph N/A   Overcast
9:55 PM 57.2 °F - 48.2 °F 72% 30.15 in 10.0 mi SE 15.0 mph - N/A   Overcast
10:15 PM 59.0 °F - 46.4 °F 63% 30.17 in 10.0 mi SSE 10.4 mph - N/A   Overcast
10:35 PM 57.2 °F - 48.2 °F 72% 30.19 in 10.0 mi SSE 10.4 mph - N/A   Overcast
10:55 PM 59.0 °F - 44.6 °F 59% 30.19 in 10.0 mi SSE 13.8 mph - N/A   Overcast
11:15 PM 59.0 °F - 44.6 °F 59% 30.20 in 10.0 mi SSE 15.0 mph - N/A   Overcast
11:35 PM 59.0 °F - 46.4 °F 63% 30.19 in 10.0 mi SSE 17.3 mph - N/A   Overcast
11:55 PM 59.0 °F - 44.6 °F 59% 30.19 in 10.0 mi SSE 15.0 mph 23.0 mph N/A   Overcast